Time,TemperatureF,DewpointF,PressureIn,WindDirection,WindDirectionDegrees,WindSpeedMPH,WindSpeedGustMPH,Humidity,HourlyPrecipIn,Conditions,Clouds,dailyrainin,SoftwareType,DateUTC
2013-01-04 00:00:00,15.3,2.4,29.85,SW,218,14.5,14.5,56,0.00,,---,0.00,VWS V13.01,2013-01-04 06:00:00,
2013-01-04 00:06:00,15.3,2.4,29.85,SE,127,5.6,10.3,56,0.00,,---,0.00,VWS V13.01,2013-01-04 06:06:00,
2013-01-04 00:11:00,15.3,2.4,29.85,SSW,205,9.4,12.1,56,0.00,,---,0.00,VWS V13.01,2013-01-04 06:11:00,
2013-01-04 00:16:00,15.3,2.4,29.85,WSW,240,4.0,5.6,56,0.00,,---,0.00,VWS V13.01,2013-01-04 06:16:00,
2013-01-04 00:21:00,15.1,2.2,29.85,WSW,255,4.7,8.7,56,0.00,,---,0.00,VWS V13.01,2013-01-04 06:21:00,
2013-01-04 00:27:00,15.1,2.2,29.88,SW,221,8.7,9.4,56,0.00,,---,0.00,VWS V13.01,2013-01-04 06:27:00,
2013-01-04 00:32:00,15.1,2.6,29.88,WSW,252,9.8,10.3,57,0.00,,---,0.00,VWS V13.01,2013-01-04 06:32:00,
2013-01-04 00:37:00,15.1,2.6,29.88,West,264,6.9,11.6,57,0.00,,---,0.00,VWS V13.01,2013-01-04 06:37:00,
2013-01-04 00:42:00,15.1,2.6,29.88,SW,225,9.8,9.8,57,0.00,,---,0.00,VWS V13.01,2013-01-04 06:42:00,
2013-01-04 00:48:00,15.1,2.6,29.88,WSW,240,5.6,8.9,57,0.00,,---,0.00,VWS V13.01,2013-01-04 06:48:00,
2013-01-04 00:54:00,14.9,2.4,29.88,West,276,5.6,11.6,57,0.00,,---,0.00,VWS V13.01,2013-01-04 06:54:00,
2013-01-04 00:59:00,14.5,2.1,29.88,SW,228,10.3,11.2,57,0.00,,---,0.00,VWS V13.01,2013-01-04 06:59:00,
2013-01-04 01:04:00,14.5,2.1,29.88,WSW,250,8.7,11.6,57,0.00,,---,0.00,VWS V13.01,2013-01-04 07:04:00,
2013-01-04 01:09:00,14.4,2.3,29.88,SW,219,8.3,8.7,58,0.00,,---,0.00,VWS V13.01,2013-01-04 07:09:00,
2013-01-04 01:15:00,14.4,2.3,29.88,SW,230,6.5,6.9,58,0.00,,---,0.00,VWS V13.01,2013-01-04 07:15:00,
2013-01-04 01:20:00,14.4,2.3,29.88,SW,220,10.3,13.6,58,0.00,,---,0.00,VWS V13.01,2013-01-04 07:20:00,
2013-01-04 01:25:00,14.4,2.7,29.88,SW,216,9.8,9.8,59,0.00,,---,0.00,VWS V13.01,2013-01-04 07:25:00,
2013-01-04 01:32:00,14.4,2.7,29.88,SW,230,8.3,8.3,59,0.00,,---,0.00,VWS V13.01,2013-01-04 07:32:00,
2013-01-04 01:37:00,14.2,2.5,29.88,SW,224,9.8,11.2,59,0.00,,---,0.00,VWS V13.01,2013-01-04 07:37:00,
2013-01-04 01:43:00,14.2,2.5,29.88,West,260,8.9,8.9,59,0.00,,---,0.00,VWS V13.01,2013-01-04 07:43:00,
2013-01-04 01:48:00,14.4,2.7,29.88,WSW,250,5.6,8.7,59,0.00,,---,0.00,VWS V13.01,2013-01-04 07:48:00,
2013-01-04 01:54:00,14.4,2.7,29.88,SW,228,6.9,8.9,59,0.00,,---,0.00,VWS V13.01,2013-01-04 07:54:00,
2013-01-04 01:59:00,14.4,2.7,29.88,WSW,244,7.4,10.7,59,0.00,,---,0.00,VWS V13.01,2013-01-04 07:59:00,
2013-01-04 02:04:00,14.5,2.8,29.88,SSW,211,8.9,12.5,59,0.00,,---,0.00,VWS V13.01,2013-01-04 08:04:00,
2013-01-04 02:10:00,14.9,3.2,29.88,SW,231,6.5,6.5,59,0.00,,---,0.00,VWS V13.01,2013-01-04 08:10:00,
2013-01-04 02:15:00,14.9,2.8,29.88,SW,226,6.5,8.3,58,0.00,,---,0.00,VWS V13.01,2013-01-04 08:15:00,
2013-01-04 02:21:00,14.9,2.8,29.88,WSW,241,6.5,6.5,58,0.00,,---,0.00,VWS V13.01,2013-01-04 08:21:00,
2013-01-04 02:26:00,15.1,2.6,29.88,WSW,244,7.4,11.2,57,0.00,,---,0.00,VWS V13.01,2013-01-04 08:26:00,
2013-01-04 02:32:00,15.1,2.6,29.88,SSW,212,10.7,10.7,57,0.00,,---,0.00,VWS V13.01,2013-01-04 08:32:00,
2013-01-04 02:37:00,15.1,2.6,29.88,WSW,246,6.9,7.4,57,0.00,,---,0.00,VWS V13.01,2013-01-04 08:37:00,
2013-01-04 02:42:00,15.1,2.6,29.88,SW,227,6.9,8.3,57,0.00,,---,0.00,VWS V13.01,2013-01-04 08:42:00,
2013-01-04 02:47:00,15.1,2.6,29.88,SW,229,4.5,6.0,57,0.00,,---,0.00,VWS V13.01,2013-01-04 08:47:00,
2013-01-04 02:53:00,14.9,2.4,29.88,SW,224,6.0,7.8,57,0.00,,---,0.00,VWS V13.01,2013-01-04 08:53:00,
2013-01-04 02:59:00,14.9,2.4,29.88,SW,221,5.6,6.9,57,0.00,,---,0.00,VWS V13.01,2013-01-04 08:59:00,
2013-01-04 03:04:00,14.9,2.4,29.88,WSW,244,5.6,5.6,57,0.00,,---,0.00,VWS V13.01,2013-01-04 09:04:00,
2013-01-04 03:10:00,14.9,2.8,29.88,SW,219,4.7,6.5,58,0.00,,---,0.00,VWS V13.01,2013-01-04 09:10:00,
2013-01-04 03:15:00,14.9,2.8,29.88,WSW,238,10.7,10.7,58,0.00,,---,0.00,VWS V13.01,2013-01-04 09:15:00,
2013-01-04 03:21:00,14.9,2.8,29.88,SSW,210,6.5,8.3,58,0.00,,---,0.00,VWS V13.01,2013-01-04 09:21:00,
2013-01-04 03:27:00,14.9,2.8,29.88,WSW,243,5.6,8.9,58,0.00,,---,0.00,VWS V13.01,2013-01-04 09:27:00,
2013-01-04 03:32:00,14.9,2.8,29.88,SW,224,6.9,8.7,58,0.00,,---,0.00,VWS V13.01,2013-01-04 09:32:00,
2013-01-04 03:37:00,14.7,2.6,29.88,South,181,6.0,8.3,58,0.00,,---,0.00,VWS V13.01,2013-01-04 09:37:00,
2013-01-04 03:42:00,14.7,2.6,29.88,SW,227,6.9,9.4,58,0.00,,---,0.00,VWS V13.01,2013-01-04 09:42:00,
2013-01-04 03:47:00,14.5,2.8,29.88,SW,224,7.4,9.4,59,0.00,,---,0.00,VWS V13.01,2013-01-04 09:47:00,
2013-01-04 03:52:00,14.5,2.8,29.88,SW,236,4.5,9.8,59,0.00,,---,0.00,VWS V13.01,2013-01-04 09:52:00,
2013-01-04 03:57:00,14.5,2.8,29.88,SW,228,11.2,11.2,59,0.00,,---,0.00,VWS V13.01,2013-01-04 09:57:00,
2013-01-04 04:02:00,14.5,2.8,29.88,WSW,241,6.9,10.3,59,0.00,,---,0.00,VWS V13.01,2013-01-04 10:02:00,
2013-01-04 04:07:00,14.5,3.2,29.88,SW,221,7.4,8.3,60,0.00,,---,0.00,VWS V13.01,2013-01-04 10:07:00,
2013-01-04 04:12:00,14.4,3.0,29.88,SW,223,6.0,7.8,60,0.00,,---,0.00,VWS V13.01,2013-01-04 10:12:00,
2013-01-04 04:17:00,14.5,3.2,29.88,SW,214,6.9,6.9,60,0.00,,---,0.00,VWS V13.01,2013-01-04 10:17:00,
2013-01-04 04:22:00,14.4,3.0,29.88,SW,217,6.9,6.9,60,0.00,,---,0.00,VWS V13.01,2013-01-04 10:22:00,
2013-01-04 04:27:00,14.4,3.0,29.88,SW,217,10.7,10.7,60,0.00,,---,0.00,VWS V13.01,2013-01-04 10:27:00,
2013-01-04 04:32:00,14.4,3.0,29.88,WSW,248,8.7,8.7,60,0.00,,---,0.00,VWS V13.01,2013-01-04 10:32:00,
2013-01-04 04:38:00,14.4,3.0,29.88,SW,229,6.0,9.8,60,0.00,,---,0.00,VWS V13.01,2013-01-04 10:38:00,
2013-01-04 04:43:00,14.4,3.0,29.88,West,276,5.1,5.6,60,0.00,,---,0.00,VWS V13.01,2013-01-04 10:43:00,
2013-01-04 04:48:00,14.2,2.9,29.88,WSW,247,5.6,6.9,60,0.00,,---,0.00,VWS V13.01,2013-01-04 10:48:00,
2013-01-04 04:53:00,14.0,2.7,29.88,SSW,213,8.3,8.7,60,0.00,,---,0.00,VWS V13.01,2013-01-04 10:53:00,
2013-01-04 04:58:00,14.2,3.2,29.85,West,268,4.0,4.7,61,0.00,,---,0.00,VWS V13.01,2013-01-04 10:58:00,
2013-01-04 05:03:00,14.2,3.2,29.85,SW,216,5.6,5.6,61,0.00,,---,0.00,VWS V13.01,2013-01-04 11:03:00,
2013-01-04 05:08:00,14.0,3.0,29.85,SW,223,6.9,7.8,61,0.00,,---,0.00,VWS V13.01,2013-01-04 11:08:00,
2013-01-04 05:13:00,14.0,3.0,29.85,SW,221,3.6,6.5,61,0.00,,---,0.00,VWS V13.01,2013-01-04 11:13:00,
2013-01-04 05:18:00,14.2,3.2,29.85,SW,227,6.9,8.9,61,0.00,,---,0.00,VWS V13.01,2013-01-04 11:18:00,
2013-01-04 05:23:00,14.2,3.2,29.85,WSW,250,5.1,5.1,61,0.00,,---,0.00,VWS V13.01,2013-01-04 11:23:00,
2013-01-04 05:28:00,14.2,3.2,29.88,SW,215,8.9,8.9,61,0.00,,---,0.00,VWS V13.01,2013-01-04 11:28:00,
2013-01-04 05:33:00,14.4,3.4,29.88,West,279,5.6,8.9,61,0.00,,---,0.00,VWS V13.01,2013-01-04 11:33:00,
2013-01-04 05:38:00,14.4,3.4,29.88,WNW,283,5.6,7.8,61,0.00,,---,0.00,VWS V13.01,2013-01-04 11:38:00,
2013-01-04 05:43:00,14.4,3.4,29.88,SW,215,4.5,4.5,61,0.00,,---,0.00,VWS V13.01,2013-01-04 11:43:00,
2013-01-04 05:48:00,14.2,3.2,29.88,West,261,4.7,7.8,61,0.00,,---,0.00,VWS V13.01,2013-01-04 11:48:00,
2013-01-04 05:53:00,14.2,3.2,29.88,WSW,237,6.0,6.0,61,0.00,,---,0.00,VWS V13.01,2013-01-04 11:53:00,
2013-01-04 05:59:00,14.2,3.2,29.88,SW,234,5.1,5.6,61,0.00,,---,0.00,VWS V13.01,2013-01-04 11:59:00,
2013-01-04 06:04:00,14.2,3.2,29.88,WSW,254,5.1,5.1,61,0.00,,---,0.00,VWS V13.01,2013-01-04 12:04:00,
2013-01-04 06:09:00,14.2,3.2,29.88,WNW,292,7.8,7.8,61,0.00,,---,0.00,VWS V13.01,2013-01-04 12:09:00,
2013-01-04 06:14:00,14.4,3.4,29.88,WSW,252,4.5,7.4,61,0.00,,---,0.00,VWS V13.01,2013-01-04 12:14:00,
2013-01-04 06:20:00,14.5,3.5,29.88,SSW,208,4.5,5.1,61,0.00,,---,0.00,VWS V13.01,2013-01-04 12:20:00,
2013-01-04 06:26:00,14.5,3.5,29.88,WSW,240,3.6,10.7,61,0.00,,---,0.00,VWS V13.01,2013-01-04 12:26:00,
2013-01-04 06:32:00,14.7,3.7,29.88,SW,218,4.7,5.1,61,0.00,,---,0.00,VWS V13.01,2013-01-04 12:32:00,
2013-01-04 06:38:00,14.9,3.5,29.88,SW,235,4.0,6.5,60,0.00,,---,0.00,VWS V13.01,2013-01-04 12:38:00,
2013-01-04 06:43:00,14.9,3.5,29.88,SW,215,6.5,6.9,60,0.00,,---,0.00,VWS V13.01,2013-01-04 12:43:00,
2013-01-04 06:49:00,14.7,3.4,29.88,SSW,193,8.3,8.3,60,0.00,,---,0.00,VWS V13.01,2013-01-04 12:49:00,
2013-01-04 06:54:00,14.7,3.4,29.88,WSW,241,4.5,6.5,60,0.00,,---,0.00,VWS V13.01,2013-01-04 12:54:00,
2013-01-04 07:00:00,14.5,3.2,29.88,SW,225,6.0,6.0,60,0.00,,---,0.00,VWS V13.01,2013-01-04 13:00:00,
2013-01-04 07:06:00,14.5,3.2,29.88,SSW,212,5.6,6.0,60,0.00,,---,0.00,VWS V13.01,2013-01-04 13:06:00,
2013-01-04 07:11:00,14.5,3.2,29.88,SW,214,4.0,9.4,60,0.00,,---,0.00,VWS V13.01,2013-01-04 13:11:00,
2013-01-04 07:17:00,14.9,3.5,29.88,WNW,286,5.6,6.0,60,0.00,,---,0.00,VWS V13.01,2013-01-04 13:17:00,
2013-01-04 07:22:00,14.9,3.5,29.88,WSW,256,5.6,6.5,60,0.00,,---,0.00,VWS V13.01,2013-01-04 13:22:00,
2013-01-04 07:28:00,14.9,3.5,29.88,SW,230,6.5,7.8,60,0.00,,---,0.00,VWS V13.01,2013-01-04 13:28:00,
2013-01-04 07:33:00,14.9,3.2,29.88,West,265,6.0,8.7,59,0.00,,---,0.00,VWS V13.01,2013-01-04 13:33:00,
2013-01-04 07:38:00,14.9,3.2,29.88,SW,224,6.5,6.5,59,0.00,,---,0.00,VWS V13.01,2013-01-04 13:38:00,
2013-01-04 07:44:00,14.5,2.8,29.88,WNW,283,6.0,6.0,59,0.00,,---,0.00,VWS V13.01,2013-01-04 13:44:00,
2013-01-04 07:49:00,14.4,2.7,29.88,SW,230,5.6,5.6,59,0.00,,---,0.00,VWS V13.01,2013-01-04 13:49:00,
2013-01-04 07:55:00,14.4,2.7,29.88,WSW,255,4.0,6.9,59,0.00,,---,0.00,VWS V13.01,2013-01-04 13:55:00,
2013-01-04 08:00:00,14.4,3.0,29.88,WSW,242,5.1,12.1,60,0.00,,---,0.00,VWS V13.01,2013-01-04 14:00:00,
2013-01-04 08:06:00,14.4,3.0,29.88,WSW,240,6.9,6.9,60,0.00,,---,0.00,VWS V13.01,2013-01-04 14:06:00,
2013-01-04 08:12:00,14.5,3.2,29.88,SSW,212,5.6,8.7,60,0.00,,---,0.00,VWS V13.01,2013-01-04 14:12:00,
2013-01-04 08:17:00,14.5,3.2,29.88,SW,215,6.5,12.1,60,0.00,,---,0.00,VWS V13.01,2013-01-04 14:17:00,
2013-01-04 08:23:00,14.9,3.5,29.88,SW,217,5.1,8.3,60,0.00,,---,0.00,VWS V13.01,2013-01-04 14:23:00,
2013-01-04 08:28:00,14.9,3.5,29.91,WSW,249,3.1,7.8,60,0.00,,---,0.00,VWS V13.01,2013-01-04 14:28:00,
2013-01-04 08:34:00,15.3,3.9,29.91,SSW,213,6.5,7.8,60,0.00,,---,0.00,VWS V13.01,2013-01-04 14:34:00,
2013-01-04 08:40:00,15.3,3.5,29.91,WSW,243,4.0,5.1,59,0.00,,---,0.00,VWS V13.01,2013-01-04 14:40:00,
2013-01-04 08:45:00,15.4,3.7,29.91,West,261,4.5,8.9,59,0.00,,---,0.00,VWS V13.01,2013-01-04 14:45:00,
2013-01-04 08:51:00,15.8,4.0,29.91,West,261,5.1,8.3,59,0.00,,---,0.00,VWS V13.01,2013-01-04 14:51:00,
2013-01-04 08:57:00,15.8,3.7,29.91,WSW,237,6.5,7.8,58,0.00,,---,0.00,VWS V13.01,2013-01-04 14:57:00,
2013-01-04 09:02:00,16.0,3.8,29.91,WSW,252,6.9,6.9,58,0.00,,---,0.00,VWS V13.01,2013-01-04 15:02:00,
2013-01-04 09:08:00,16.5,4.3,29.91,WSW,255,5.1,5.1,58,0.00,,---,0.00,VWS V13.01,2013-01-04 15:08:00,
2013-01-04 09:13:00,16.7,4.5,29.91,West,269,4.5,6.9,58,0.00,,---,0.00,VWS V13.01,2013-01-04 15:13:00,
2013-01-04 09:19:00,17.4,4.8,29.91,WSW,254,6.9,8.3,57,0.00,,---,0.00,VWS V13.01,2013-01-04 15:19:00,
2013-01-04 09:25:00,17.8,4.8,29.91,West,271,6.0,8.9,56,0.00,,---,0.00,VWS V13.01,2013-01-04 15:25:00,
2013-01-04 09:30:00,18.3,4.9,29.91,WNW,291,4.0,7.4,55,0.00,,---,0.00,VWS V13.01,2013-01-04 15:30:00,
2013-01-04 09:35:00,18.5,5.0,29.91,SW,222,6.9,8.3,55,0.00,,---,0.00,VWS V13.01,2013-01-04 15:35:00,
2013-01-04 09:40:00,18.9,5.0,29.91,SW,227,8.3,8.7,54,0.00,,---,0.00,VWS V13.01,2013-01-04 15:40:00,
2013-01-04 09:46:00,19.4,5.1,29.91,SW,227,7.4,7.4,53,0.00,,---,0.00,VWS V13.01,2013-01-04 15:46:00,
2013-01-04 09:52:00,19.6,5.2,29.91,West,265,5.6,6.5,53,0.00,,---,0.00,VWS V13.01,2013-01-04 15:52:00,
2013-01-04 09:57:00,19.9,5.2,29.91,West,265,5.6,8.7,52,0.00,,---,0.00,VWS V13.01,2013-01-04 15:57:00,
2013-01-04 10:03:00,20.3,5.5,29.91,WSW,251,6.5,6.5,52,0.00,,---,0.00,VWS V13.01,2013-01-04 16:03:00,
2013-01-04 10:09:00,20.7,5.4,29.91,SSW,211,6.0,7.8,51,0.00,,---,0.00,VWS V13.01,2013-01-04 16:09:00,
2013-01-04 10:14:00,21.2,5.5,29.91,SW,233,7.8,7.8,50,0.00,,---,0.00,VWS V13.01,2013-01-04 16:14:00,
2013-01-04 10:20:00,21.7,5.5,29.91,West,265,4.5,6.0,49,0.00,,---,0.00,VWS V13.01,2013-01-04 16:20:00,
2013-01-04 10:25:00,22.1,5.9,29.94,West,270,6.0,7.8,49,0.00,,---,0.00,VWS V13.01,2013-01-04 16:25:00,
2013-01-04 10:30:00,22.8,6.1,29.94,SW,222,6.0,6.0,48,0.00,,---,0.00,VWS V13.01,2013-01-04 16:30:00,
2013-01-04 10:35:00,23.2,5.9,29.94,WSW,248,4.7,5.1,47,0.00,,---,0.00,VWS V13.01,2013-01-04 16:35:00,
2013-01-04 10:40:00,23.5,6.3,29.94,WSW,248,6.0,6.9,47,0.00,,---,0.00,VWS V13.01,2013-01-04 16:40:00,
2013-01-04 10:45:00,24.1,6.3,29.94,WSW,253,6.5,7.4,46,0.00,,---,0.00,VWS V13.01,2013-01-04 16:45:00,
2013-01-04 10:50:00,24.8,7.0,29.94,West,260,4.5,6.5,46,0.00,,---,0.00,VWS V13.01,2013-01-04 16:50:00,
2013-01-04 10:56:00,25.7,7.3,29.94,West,272,5.1,6.5,45,0.00,,---,0.00,VWS V13.01,2013-01-04 16:56:00,
2013-01-04 11:02:00,26.4,8.0,29.94,SW,223,5.1,5.1,45,0.00,,---,0.00,VWS V13.01,2013-01-04 17:02:00,
2013-01-04 11:07:00,27.0,8.5,29.94,SW,232,4.0,4.7,45,0.00,,---,0.00,VWS V13.01,2013-01-04 17:07:00,
2013-01-04 11:13:00,27.5,8.5,29.94,WSW,250,5.6,6.0,44,0.00,,---,0.00,VWS V13.01,2013-01-04 17:13:00,
2013-01-04 11:18:00,27.7,8.6,29.94,SW,231,5.6,5.6,44,0.00,,---,0.00,VWS V13.01,2013-01-04 17:18:00,
2013-01-04 11:24:00,27.9,8.3,29.94,West,270,10.7,10.7,43,0.00,,---,0.00,VWS V13.01,2013-01-04 17:24:00,
2013-01-04 11:30:00,28.0,8.4,29.94,WSW,248,4.0,5.1,43,0.00,,---,0.00,VWS V13.01,2013-01-04 17:30:00,
2013-01-04 11:35:00,28.4,8.8,29.94,West,261,4.0,4.7,43,0.00,,---,0.00,VWS V13.01,2013-01-04 17:35:00,
2013-01-04 11:40:00,28.9,9.3,29.94,NW,318,3.6,4.0,43,0.00,,---,0.00,VWS V13.01,2013-01-04 17:40:00,
2013-01-04 11:46:00,29.7,9.4,29.94,SW,219,7.4,7.8,42,0.00,,---,0.00,VWS V13.01,2013-01-04 17:46:00,
2013-01-04 11:51:00,29.7,9.4,29.94,SSW,206,3.1,6.5,42,0.00,,---,0.00,VWS V13.01,2013-01-04 17:51:00,
2013-01-04 11:57:00,29.7,9.4,29.94,West,273,3.1,4.0,42,0.00,,---,0.00,VWS V13.01,2013-01-04 17:57:00,
2013-01-04 12:03:00,30.2,9.9,29.94,WSW,249,6.0,9.8,42,0.00,,---,0.00,VWS V13.01,2013-01-04 18:03:00,
2013-01-04 12:09:00,30.7,9.8,29.94,West,266,5.1,8.7,41,0.00,,---,0.00,VWS V13.01,2013-01-04 18:09:00,
2013-01-04 12:15:00,31.3,10.3,29.94,NW,317,10.7,10.7,41,0.00,,---,0.00,VWS V13.01,2013-01-04 18:15:00,
2013-01-04 12:21:00,31.5,10.5,29.94,West,275,7.4,7.4,41,0.00,,---,0.00,VWS V13.01,2013-01-04 18:21:00,
2013-01-04 12:26:00,31.8,10.8,29.94,NW,307,4.7,6.9,41,0.00,,---,0.00,VWS V13.01,2013-01-04 18:26:00,
2013-01-04 12:33:00,32.0,11.0,29.94,West,267,5.6,6.5,41,0.00,,---,0.00,VWS V13.01,2013-01-04 18:33:00,
2013-01-04 12:38:00,31.8,10.8,29.94,SW,227,4.5,4.5,41,0.00,,---,0.00,VWS V13.01,2013-01-04 18:38:00,
2013-01-04 12:43:00,31.6,10.6,29.91,West,263,6.9,6.9,41,0.00,,---,0.00,VWS V13.01,2013-01-04 18:43:00,
2013-01-04 12:49:00,31.8,10.8,29.91,WNW,290,4.7,6.5,41,0.00,,---,0.00,VWS V13.01,2013-01-04 18:49:00,
2013-01-04 12:54:00,32.5,11.5,29.91,WNW,287,7.4,7.8,41,0.00,,---,0.00,VWS V13.01,2013-01-04 18:54:00,
2013-01-04 13:00:00,32.9,11.8,29.91,SW,220,5.6,5.6,41,0.00,,---,0.00,VWS V13.01,2013-01-04 19:00:00,
2013-01-04 13:05:00,33.3,12.1,29.91,West,266,4.5,6.5,41,0.00,,---,0.00,VWS V13.01,2013-01-04 19:05:00,
2013-01-04 13:10:00,33.6,12.4,29.91,WSW,237,4.5,5.6,41,0.00,,---,0.00,VWS V13.01,2013-01-04 19:10:00,
2013-01-04 13:16:00,33.8,12.1,29.91,WSW,244,6.5,6.5,40,0.00,,---,0.00,VWS V13.01,2013-01-04 19:16:00,
2013-01-04 13:22:00,33.8,12.1,29.91,NW,317,5.1,6.5,40,0.00,,---,0.00,VWS V13.01,2013-01-04 19:22:00,
2013-01-04 13:27:00,34.0,12.2,29.94,West,275,3.6,5.1,40,0.00,,---,0.00,VWS V13.01,2013-01-04 19:27:00,
2013-01-04 13:33:00,34.0,12.2,29.94,WNW,292,4.5,7.8,40,0.00,,---,0.00,VWS V13.01,2013-01-04 19:33:00,
2013-01-04 13:38:00,34.0,12.2,29.94,WSW,251,5.6,5.6,40,0.00,,---,0.00,VWS V13.01,2013-01-04 19:38:00,
2013-01-04 13:43:00,34.3,12.5,29.94,NW,307,4.0,4.7,40,0.00,,---,0.00,VWS V13.01,2013-01-04 19:43:00,
2013-01-04 13:49:00,34.5,12.7,29.94,WNW,286,4.7,6.0,40,0.00,,---,0.00,VWS V13.01,2013-01-04 19:49:00,
2013-01-04 13:54:00,34.7,12.9,29.94,WNW,292,4.5,6.5,40,0.00,,---,0.00,VWS V13.01,2013-01-04 19:54:00,
2013-01-04 14:00:00,34.7,12.9,29.94,SW,236,4.7,6.9,40,0.00,,---,0.00,VWS V13.01,2013-01-04 20:00:00,
2013-01-04 14:05:00,34.7,12.9,29.94,WSW,255,5.6,7.8,40,0.00,,---,0.00,VWS V13.01,2013-01-04 20:05:00,
2013-01-04 14:10:00,34.5,12.1,29.94,SW,215,3.6,5.6,39,0.00,,---,0.00,VWS V13.01,2013-01-04 20:10:00,
2013-01-04 14:15:00,34.5,12.1,29.94,SW,227,6.0,9.8,39,0.00,,---,0.00,VWS V13.01,2013-01-04 20:15:00,
2013-01-04 14:21:00,34.5,12.7,29.94,West,259,6.5,6.5,40,0.00,,---,0.00,VWS V13.01,2013-01-04 20:21:00,
2013-01-04 14:26:00,34.5,12.1,29.94,West,271,5.6,8.3,39,0.00,,---,0.00,VWS V13.01,2013-01-04 20:26:00,
2013-01-04 14:32:00,34.5,12.7,29.94,West,268,8.3,8.7,40,0.00,,---,0.00,VWS V13.01,2013-01-04 20:32:00,
2013-01-04 14:37:00,34.3,12.5,29.94,WNW,300,3.6,7.8,40,0.00,,---,0.00,VWS V13.01,2013-01-04 20:37:00,
2013-01-04 14:42:00,34.5,12.1,29.94,WSW,242,3.1,5.1,39,0.00,,---,0.00,VWS V13.01,2013-01-04 20:42:00,
2013-01-04 14:47:00,34.5,12.7,29.94,WNW,284,3.6,6.9,40,0.00,,---,0.00,VWS V13.01,2013-01-04 20:47:00,
2013-01-04 14:53:00,34.5,12.1,29.94,WNW,282,5.1,6.9,39,0.00,,---,0.00,VWS V13.01,2013-01-04 20:53:00,
2013-01-04 14:58:00,34.3,12.0,29.94,NW,316,3.6,4.5,39,0.00,,---,0.00,VWS V13.01,2013-01-04 20:58:00,
2013-01-04 15:04:00,34.3,12.0,29.94,West,273,5.1,6.0,39,0.00,,---,0.00,VWS V13.01,2013-01-04 21:04:00,
2013-01-04 15:09:00,34.3,12.5,29.94,WNW,294,3.6,4.7,40,0.00,,---,0.00,VWS V13.01,2013-01-04 21:09:00,
2013-01-04 15:14:00,34.3,12.5,29.97,WSW,256,3.1,4.7,40,0.00,,---,0.00,VWS V13.01,2013-01-04 21:14:00,
2013-01-04 15:19:00,34.3,12.5,29.97,SSW,213,7.8,7.8,40,0.00,,---,0.00,VWS V13.01,2013-01-04 21:19:00,
2013-01-04 15:25:00,34.3,12.5,29.97,NNW,333,4.7,4.7,40,0.00,,---,0.00,VWS V13.01,2013-01-04 21:25:00,
2013-01-04 15:30:00,34.2,12.4,29.97,West,262,4.7,5.6,40,0.00,,---,0.00,VWS V13.01,2013-01-04 21:30:00,
2013-01-04 15:35:00,33.8,12.1,29.97,WSW,237,4.5,4.7,40,0.00,,---,0.00,VWS V13.01,2013-01-04 21:35:00,
2013-01-04 15:40:00,33.6,11.9,29.97,West,277,4.5,7.8,40,0.00,,---,0.00,VWS V13.01,2013-01-04 21:40:00,
2013-01-04 15:46:00,33.4,11.7,29.97,NW,306,4.0,4.7,40,0.00,,---,0.00,VWS V13.01,2013-01-04 21:46:00,
2013-01-04 15:51:00,33.3,11.6,29.97,WSW,248,6.9,6.9,40,0.00,,---,0.00,VWS V13.01,2013-01-04 21:51:00,
2013-01-04 15:56:00,33.1,11.4,30.00,SW,232,5.6,5.6,40,0.00,,---,0.00,VWS V13.01,2013-01-04 21:56:00,
2013-01-04 16:01:00,33.1,11.4,30.00,WSW,237,3.6,5.6,40,0.00,,---,0.00,VWS V13.01,2013-01-04 22:01:00,
2013-01-04 16:06:00,32.7,11.1,30.00,West,274,3.1,5.6,40,0.00,,---,0.00,VWS V13.01,2013-01-04 22:06:00,
2013-01-04 16:12:00,32.5,10.9,30.00,West,274,0.0,2.7,40,0.00,,---,0.00,VWS V13.01,2013-01-04 22:12:00,
2013-01-04 16:17:00,32.2,10.6,30.00,WSW,245,5.1,6.0,40,0.00,,---,0.00,VWS V13.01,2013-01-04 22:17:00,
2013-01-04 16:22:00,32.0,10.4,30.00,SW,236,3.6,6.0,40,0.00,,---,0.00,VWS V13.01,2013-01-04 22:22:00,
2013-01-04 16:27:00,31.6,10.1,30.00,SW,216,4.0,4.5,40,0.00,,---,0.00,VWS V13.01,2013-01-04 22:27:00,
2013-01-04 16:32:00,31.5,10.5,30.00,SW,226,4.0,4.0,41,0.00,,---,0.00,VWS V13.01,2013-01-04 22:32:00,
2013-01-04 16:37:00,31.3,10.3,30.00,SW,225,3.1,5.1,41,0.00,,---,0.00,VWS V13.01,2013-01-04 22:37:00,
2013-01-04 16:42:00,31.1,10.2,30.03,WSW,240,6.0,6.0,41,0.00,,---,0.00,VWS V13.01,2013-01-04 22:42:00,
2013-01-04 16:47:00,31.1,10.2,30.03,West,263,4.0,4.0,41,0.00,,---,0.00,VWS V13.01,2013-01-04 22:47:00,
2013-01-04 16:52:00,30.7,9.8,30.03,WSW,242,3.6,5.1,41,0.00,,---,0.00,VWS V13.01,2013-01-04 22:52:00,
2013-01-04 16:58:00,30.6,9.7,30.03,WSW,248,4.7,5.6,41,0.00,,---,0.00,VWS V13.01,2013-01-04 22:58:00,
2013-01-04 17:03:00,30.6,9.7,30.03,WSW,247,3.1,4.5,41,0.00,,---,0.00,VWS V13.01,2013-01-04 23:03:00,
2013-01-04 17:09:00,30.4,9.5,30.03,West,273,4.5,4.5,41,0.00,,---,0.00,VWS V13.01,2013-01-04 23:09:00,
2013-01-04 17:14:00,30.4,9.5,30.03,West,266,3.6,3.6,41,0.00,,---,0.00,VWS V13.01,2013-01-04 23:14:00,
2013-01-04 17:19:00,30.2,9.9,30.03,WNW,283,6.0,6.0,42,0.00,,---,0.00,VWS V13.01,2013-01-04 23:19:00,
2013-01-04 17:25:00,30.0,9.7,30.03,West,260,3.6,4.0,42,0.00,,---,0.00,VWS V13.01,2013-01-04 23:25:00,
2013-01-04 17:30:00,30.0,9.7,30.03,SW,232,6.5,6.5,42,0.00,,---,0.00,VWS V13.01,2013-01-04 23:30:00,
2013-01-04 17:36:00,30.0,9.7,30.03,WSW,239,0.0,0.0,42,0.00,,---,0.00,VWS V13.01,2013-01-04 23:36:00,
2013-01-04 17:41:00,29.8,9.6,30.03,WSW,239,0.0,0.0,42,0.00,,---,0.00,VWS V13.01,2013-01-04 23:41:00,
2013-01-04 17:46:00,29.8,9.6,30.03,WSW,247,3.6,3.6,42,0.00,,---,0.00,VWS V13.01,2013-01-04 23:46:00,
2013-01-04 17:51:00,29.7,9.4,30.03,WSW,251,4.5,4.5,42,0.00,,---,0.00,VWS V13.01,2013-01-04 23:51:00,
2013-01-04 17:56:00,29.5,9.2,30.03,West,263,3.1,4.7,42,0.00,,---,0.00,VWS V13.01,2013-01-04 23:56:00,
2013-01-04 18:01:00,29.5,9.2,30.03,West,263,3.6,3.6,42,0.00,,---,0.00,VWS V13.01,2013-01-05 00:01:00,
2013-01-04 18:06:00,29.7,9.4,30.03,West,263,0.0,0.0,42,0.00,,---,0.00,VWS V13.01,2013-01-05 00:06:00,
2013-01-04 18:11:00,29.7,9.4,30.03,WSW,247,5.6,7.4,42,0.00,,---,0.00,VWS V13.01,2013-01-05 00:11:00,
2013-01-04 18:16:00,29.5,9.2,30.03,NW,309,4.5,4.5,42,0.00,,---,0.00,VWS V13.01,2013-01-05 00:16:00,
2013-01-04 18:22:00,29.5,9.8,30.03,NW,309,4.0,4.0,43,0.00,,---,0.00,VWS V13.01,2013-01-05 00:22:00,
2013-01-04 18:27:00,29.3,9.6,30.03,WSW,253,4.0,5.1,43,0.00,,---,0.00,VWS V13.01,2013-01-05 00:27:00,
2013-01-04 18:33:00,29.1,9.4,30.03,WSW,253,3.1,3.1,43,0.00,,---,0.00,VWS V13.01,2013-01-05 00:33:00,
2013-01-04 18:38:00,28.9,9.3,30.03,WSW,254,3.1,3.1,43,0.00,,---,0.00,VWS V13.01,2013-01-05 00:38:00,
2013-01-04 18:43:00,28.8,9.1,30.06,WSW,253,0.0,3.1,43,0.00,,---,0.00,VWS V13.01,2013-01-05 00:43:00,
2013-01-04 18:48:00,28.6,8.9,30.06,WSW,253,3.1,4.0,43,0.00,,---,0.00,VWS V13.01,2013-01-05 00:48:00,
2013-01-04 18:53:00,28.6,8.9,30.06,WSW,254,3.1,4.0,43,0.00,,---,0.00,VWS V13.01,2013-01-05 00:53:00,
2013-01-04 18:58:00,28.4,9.3,30.06,WSW,253,0.0,0.0,44,0.00,,---,0.00,VWS V13.01,2013-01-05 00:58:00,
2013-01-04 19:04:00,28.2,9.1,30.06,WSW,253,0.0,0.0,44,0.00,,---,0.00,VWS V13.01,2013-01-05 01:04:00,
2013-01-04 19:09:00,27.7,8.6,30.06,WSW,253,0.0,0.0,44,0.00,,---,0.00,VWS V13.01,2013-01-05 01:09:00,
2013-01-04 19:14:00,27.3,8.8,30.06,WSW,254,0.0,0.0,45,0.00,,---,0.00,VWS V13.01,2013-01-05 01:14:00,
2013-01-04 19:19:00,27.1,8.6,30.06,WSW,253,0.0,0.0,45,0.00,,---,0.00,VWS V13.01,2013-01-05 01:19:00,
2013-01-04 19:24:00,27.0,8.9,30.06,NNW,334,0.0,0.0,46,0.00,,---,0.00,VWS V13.01,2013-01-05 01:24:00,
2013-01-04 19:29:00,27.1,9.6,30.06,NNW,334,0.0,0.0,47,0.00,,---,0.00,VWS V13.01,2013-01-05 01:29:00,
2013-01-04 19:34:00,27.1,10.1,30.06,NNW,334,0.0,0.0,48,0.00,,---,0.00,VWS V13.01,2013-01-05 01:34:00,
2013-01-04 19:39:00,27.3,10.2,30.06,NNW,334,0.0,0.0,48,0.00,,---,0.00,VWS V13.01,2013-01-05 01:39:00,
2013-01-04 19:45:00,27.0,9.9,30.06,NNE,17,4.0,4.7,48,0.00,,---,0.00,VWS V13.01,2013-01-05 01:45:00,
2013-01-04 19:50:00,26.6,10.0,30.06,NNW,340,4.5,4.5,49,0.00,,---,0.00,VWS V13.01,2013-01-05 01:50:00,
2013-01-04 19:56:00,26.6,10.5,30.06,North,353,2.7,3.6,50,0.00,,---,0.00,VWS V13.01,2013-01-05 01:56:00,
2013-01-04 20:02:00,26.6,10.5,30.06,North,8,3.1,4.0,50,0.00,,---,0.00,VWS V13.01,2013-01-05 02:02:00,
2013-01-04 20:07:00,26.4,10.8,30.06,North,350,4.5,4.5,51,0.00,,---,0.00,VWS V13.01,2013-01-05 02:07:00,
2013-01-04 20:13:00,26.2,10.6,30.06,North,8,4.0,4.7,51,0.00,,---,0.00,VWS V13.01,2013-01-05 02:13:00,
2013-01-04 20:18:00,26.2,11.0,30.06,NNW,338,4.5,4.5,52,0.00,,---,0.00,VWS V13.01,2013-01-05 02:18:00,
2013-01-04 20:23:00,26.2,11.0,30.06,North,357,2.7,5.1,52,0.00,,---,0.00,VWS V13.01,2013-01-05 02:23:00,
2013-01-04 20:28:00,26.1,10.9,30.06,North,357,0.0,3.6,52,0.00,,---,0.00,VWS V13.01,2013-01-05 02:28:00,
2013-01-04 20:33:00,25.7,10.5,30.06,North,357,0.0,0.0,52,0.00,,---,0.00,VWS V13.01,2013-01-05 02:33:00,
2013-01-04 20:39:00,25.5,10.4,30.06,North,357,0.0,0.0,52,0.00,,---,0.00,VWS V13.01,2013-01-05 02:39:00,
2013-01-04 20:45:00,25.3,10.2,30.06,North,357,0.0,0.0,52,0.00,,---,0.00,VWS V13.01,2013-01-05 02:45:00,
2013-01-04 20:50:00,25.2,10.0,30.06,North,357,0.0,0.0,52,0.00,,---,0.00,VWS V13.01,2013-01-05 02:50:00,
2013-01-04 20:55:00,25.0,9.9,30.06,North,357,0.0,0.0,52,0.00,,---,0.00,VWS V13.01,2013-01-05 02:55:00,
2013-01-04 21:00:00,24.8,10.1,30.06,North,357,0.0,0.0,53,0.00,,---,0.00,VWS V13.01,2013-01-05 03:00:00,
2013-01-04 21:06:00,24.4,9.8,30.06,North,357,0.0,0.0,53,0.00,,---,0.00,VWS V13.01,2013-01-05 03:06:00,
2013-01-04 21:11:00,23.9,9.3,30.06,North,357,0.0,0.0,53,0.00,,---,0.00,VWS V13.01,2013-01-05 03:11:00,
2013-01-04 21:17:00,23.4,8.8,30.06,North,357,0.0,0.0,53,0.00,,---,0.00,VWS V13.01,2013-01-05 03:17:00,
2013-01-04 21:22:00,23.2,9.0,30.06,North,357,0.0,0.0,54,0.00,,---,0.00,VWS V13.01,2013-01-05 03:22:00,
2013-01-04 21:28:00,22.8,9.1,30.06,North,357,0.0,0.0,55,0.00,,---,0.00,VWS V13.01,2013-01-05 03:28:00,
2013-01-04 21:33:00,22.5,8.8,30.06,North,357,0.0,0.0,55,0.00,,---,0.00,VWS V13.01,2013-01-05 03:33:00,
2013-01-04 21:39:00,22.3,9.0,30.06,North,357,0.0,0.0,56,0.00,,---,0.00,VWS V13.01,2013-01-05 03:39:00,
2013-01-04 21:45:00,21.9,9.0,30.06,North,357,0.0,0.0,57,0.00,,---,0.00,VWS V13.01,2013-01-05 03:45:00,
2013-01-04 21:51:00,21.7,8.9,30.06,North,357,0.0,0.0,57,0.00,,---,0.00,VWS V13.01,2013-01-05 03:51:00,
2013-01-04 21:56:00,21.4,8.5,30.06,North,357,0.0,0.0,57,0.00,,---,0.00,VWS V13.01,2013-01-05 03:56:00,
2013-01-04 22:01:00,21.2,8.7,30.06,North,357,0.0,0.0,58,0.00,,---,0.00,VWS V13.01,2013-01-05 04:01:00,
2013-01-04 22:07:00,21.0,8.9,30.06,North,357,0.0,0.0,59,0.00,,---,0.00,VWS V13.01,2013-01-05 04:07:00,
2013-01-04 22:13:00,20.8,9.2,30.06,North,357,0.0,0.0,60,0.00,,---,0.00,VWS V13.01,2013-01-05 04:13:00,
2013-01-04 22:19:00,20.7,9.4,30.06,North,357,0.0,0.0,61,0.00,,---,0.00,VWS V13.01,2013-01-05 04:19:00,
2013-01-04 22:24:00,20.7,9.7,30.06,North,357,0.0,0.0,62,0.00,,---,0.00,VWS V13.01,2013-01-05 04:24:00,
2013-01-04 22:30:00,20.8,10.2,30.06,North,357,0.0,0.0,63,0.00,,---,0.00,VWS V13.01,2013-01-05 04:30:00,
2013-01-04 22:35:00,20.8,10.2,30.06,North,357,0.0,0.0,63,0.00,,---,0.00,VWS V13.01,2013-01-05 04:35:00,
2013-01-04 22:41:00,20.7,10.4,30.06,North,357,0.0,0.0,64,0.00,,---,0.00,VWS V13.01,2013-01-05 04:41:00,
2013-01-04 22:46:00,20.5,10.2,30.06,North,357,0.0,0.0,64,0.00,,---,0.00,VWS V13.01,2013-01-05 04:46:00,
2013-01-04 22:51:00,20.3,10.1,30.06,North,357,0.0,0.0,64,0.00,,---,0.00,VWS V13.01,2013-01-05 04:51:00,
2013-01-04 22:57:00,20.3,10.4,30.09,North,357,0.0,0.0,65,0.00,,---,0.00,VWS V13.01,2013-01-05 04:57:00,
2013-01-04 23:00:00,20.3,10.4,30.09,North,357,0.0,0.0,65,0.00,,---,0.00,VWS V13.01,2013-01-05 05:00:00,
2013-01-04 23:04:00,20.1,10.3,30.09,North,357,0.0,0.0,65,0.00,,---,0.00,VWS V13.01,2013-01-05 05:04:00,
2013-01-04 23:05:00,20.1,10.3,30.09,North,357,0.0,0.0,65,0.00,,---,0.00,VWS V13.01,2013-01-05 05:05:00,
2013-01-04 23:07:00,19.9,10.1,30.09,North,357,0.0,0.0,65,0.00,,---,0.00,VWS V13.01,2013-01-05 05:07:00,
2013-01-04 23:12:00,19.8,9.9,30.09,North,357,0.0,0.0,65,0.00,,---,0.00,VWS V13.01,2013-01-05 05:12:00,
2013-01-04 23:17:00,19.6,9.7,30.09,North,357,0.0,0.0,65,0.00,,---,0.00,VWS V13.01,2013-01-05 05:17:00,
2013-01-04 23:23:00,19.4,9.6,30.09,North,357,0.0,0.0,65,0.00,,---,0.00,VWS V13.01,2013-01-05 05:23:00,
2013-01-04 23:28:00,19.0,9.2,30.09,North,357,0.0,0.0,65,0.00,,---,0.00,VWS V13.01,2013-01-05 05:28:00,
2013-01-04 23:33:00,18.7,9.2,30.09,North,357,0.0,0.0,66,0.00,,---,0.00,VWS V13.01,2013-01-05 05:33:00,
2013-01-04 23:39:00,18.5,9.1,30.09,North,357,0.0,0.0,66,0.00,,---,0.00,VWS V13.01,2013-01-05 05:39:00,
2013-01-04 23:45:00,18.3,8.9,30.09,North,357,0.0,0.0,66,0.00,,---,0.00,VWS V13.01,2013-01-05 05:45:00,
2013-01-04 23:50:00,18.1,9.0,30.09,North,357,0.0,0.0,67,0.00,,---,0.00,VWS V13.01,2013-01-05 05:50:00,
2013-01-04 23:56:00,17.8,8.7,30.09,North,357,0.0,0.0,67,0.00,,---,0.00,VWS V13.01,2013-01-05 05:56:00,